Regional Weather Roundup
Issued by NWS Raleigh/Durham, NC

Home | Current Version | Previous Version | Text Only | Print | Product List | Glossary On
Versions: 1 2 3 4 5 6 7 8 9 10 11 12 13 14 15 16 17 18 19 20 21 22 23 24 25 26 27 28 29 30 31 32 33 34 35 36 37 38 39 40 41 42 43 44 45 46 47 48 49 50
000
ASUS42 KRAH 260010
RWRRAH
NORTH CAROLINA WEATHER ROUNDUP
NATIONAL WEATHER SERVICE RALEIGH NC
800 PM EDT SAT MAR 25 2017

NOTE: "FAIR" INDICATES FEW OR NO CLOUDS BELOW 12,000 FEET WITH NO
SIGNIFICANT WEATHER AND/OR OBSTRUCTIONS TO VISIBILITY.

NCZ001-053-055-056-065-067-260100-
WESTERN NORTH CAROLINA

CITY           SKY/WX    TMP DP  RH WIND       PRES   REMARKS
ASHEVILLE      CLOUDY    63  45  51 SE5       30.21R
JEFFERSON      PTCLDY    56  44  65 S5        30.22R
MORGANTON      CLOUDY    64  49  58 CALM      30.23R
HICKORY        MOCLDY    65  48  54 CALM      30.19R
RUTHERFORDTON  CLOUDY    66  49  53 S8        30.19S
MOUNT AIRY     CLEAR     68  50  52 CALM      30.21R
BOONE          CLEAR     58  42  55 CALM      30.23R
$$

NCZ021-022-025-041-071-084-088-260100-
CENTRAL NORTH CAROLINA

CITY           SKY/WX    TMP DP  RH WIND       PRES   REMARKS
CHARLOTTE      MOCLDY    69  47  45 S6        30.19R
GREENSBORO     MOCLDY    67  48  50 S5        30.19R
WINSTON-SALEM  MOCLDY    69  45  41 S5        30.20R
RALEIGH-DURHAM MOCLDY    70  48  45 S6        30.21R
FORT BRAGG     MOCLDY    71  48  43 S3        30.20R
FAYETTEVILLE   MOCLDY    71  52  50 S7        30.20R
BURLINGTON     MOCLDY    69  48  47 S5        30.19R
LAURINBURG     CLEAR     67  51  56 S5        30.21R
$$

NCZ011-015-027-028-043-044-047-080-103-260100-
NORTHEASTERN NORTH CAROLINA

CITY           SKY/WX    TMP DP  RH WIND       PRES   REMARKS
ROCKY MT-WILSO CLOUDY    64  52  64 CALM      30.21S
GREENVILLE     CLOUDY    68  52  56 S7        30.24R
WASHINGTON     CLOUDY    67  52  57 S6        30.24S
ELIZABETH CITY PTCLDY    66  51  58 S9        30.23R
MANTEO         PTCLDY    60  53  76 SW10      30.26R
CAPE HATTERAS  PTCLDY    64  55  72 SW9       30.27S
$$

NCZ078-087-090-091-093-098-101-260100-
SOUTHEASTERN NORTH CAROLINA

CITY           SKY/WX    TMP DP  RH WIND       PRES   REMARKS
LUMBERTON      PTCLDY    68  53  58 S8        30.21R
GOLDSBORO      MOCLDY    69  52  54 S6        30.21R
KINSTON        MOCLDY    68  52  56 S7        30.24R
KENANSVILLE    CLOUDY    66  52  59 CALM      30.24R
NEW BERN       CLOUDY    66  54  65 S9        30.26R
CHERRY POINT   CLEAR     67  53  61 S10       30.27R
BEAUFORT       PTCLDY    63  55  75 S5        30.27S
JACKSONVILLE   CLOUDY    65  56  72 S8        30.25S
WILMINGTON     PTCLDY    65  55  70 S6        30.25S
$$




USA.gov is the U.S. government's official web portal to all federal, state and local government web resources and services.